Location: Rio Tanui
(39.9167°N, 8.5167°E)
Time: 02:10:56
(UTC+00:00)

Cosmos 2322 - Pass Details

Date: 08 February 2023
Orbit: 841 x 853 km, 71.0° (Epoch: 01 April)

Event Time Altitude Azimuth Distance (km) Brightness Sun altitude
Rises 17:43:35 0° 197° (SSW) 3,404 7.3 -10.2°
Reaches altitude 10° 17:46:01 10° 196° (SSW) 2,473 6.5 -10.6°
Maximum altitude 17:51:42 78° 111° (ESE) 876 3.7 -11.7°
Drops below altitude 10° 17:57:25 10° 26° (NNE) 2,489 5.8 -12.8°
Sets 17:59:53 0° 25° (NNE) 3,428 6.5 -13.2°
